Weather History for KBQP - August, 2013

Change the Weather History Date:

Friday, August 16, 2013

  Actual Average (KMLU) Record (KMLU)
Temperature  
Mean Temperature 76 °F 83 °F  
Max Temperature 89 °F 95 °F 102 °F (1936)
Min Temperature 63 °F 71 °F 57 °F (1963)
Degree Days  
Heating Degree Days 0 0  
Month to date heating degree days 0  
Since 1 June heating degree days 0  
Since 1 July heating degree days 0  
Cooling Degree Days 11 18  
Month to date cooling degree days 288  
Year to date cooling degree days 1748  
Since 1 June cooling degree days 1313  
Growing Degree Days 26 (Base 50)    
Moisture  
Dew Point 59 °F    
Average Humidity 58    
Maximum Humidity 87    
Minimum Humidity 29    
Precipitation  
Precipitation 0.00 in 0.10 in 3.34 in (2002)
Month to date precipitation 1.55  
Year to date precipitation 33.85  
Snow  
Snow 0.00 in - - ()
Month to date snowfall  
Since 1 June snowfall  
Since 1 July snowfall  
Snow Depth -    
Sea Level Pressure  
Sea Level Pressure 30.02 in    
Wind  
Wind Speed 0 mph (NW)    
Max Wind Speed 9 mph    
Max Gust Speed -    
Visibility 10 miles    
Events      
T = Trace of Precipitation, MM = Missing Value Source: NWS Daily Summary

Daily Weather History Graph

Daily Weather History Graph

Search for Another Location

Airport or City:

Trip Planner

Search our weather history database for the weather conditions in past years. The results will help you decide how hot, cold, wet, or windy it might be!

Date:

Astronomy

Aug. 16, 2013 Rise Set
Actual Time 6:31 AM CDT 7:51 PM CDT
Civil Twilight 6:05 AM CDT 8:16 PM CDT
Nautical Twilight 5:34 AM CDT 8:47 PM CDT
Astronomical Twilight 5:02 AM CDT 9:19 PM CDT
Moon 4:04 PM CDT (8/16) 1:41 AM CDT (8/16)
Length of Visible Light 14h 11m
Length of Day
13h 19m
Waxing Gibbous, 75% of the Moon is Illuminated
Aug 16
Waxing Gibbous
Aug 20
Full
Aug 28
Last Quarter
Sep 5
New
Sep 12
First Quarter

Hourly Weather History & Observations

Time (CDT) Temp. Heat Index Dew Point Humidity Pressure Visibility Wind Dir Wind Speed Gust Speed Precip Events Conditions
12:15 AM 70.7 °F - 60.1 °F 69% 30.03 in 10.0 mi Calm Calm - N/A   Clear
12:55 AM 69.3 °F - 60.1 °F 72% 30.02 in 10.0 mi Calm Calm - N/A   Clear
1:15 AM 68.9 °F - 60.1 °F 73% 30.02 in 10.0 mi Calm Calm - N/A   Clear
1:35 AM 68.5 °F - 60.1 °F 74% 30.02 in 10.0 mi Calm Calm - N/A   Clear
1:55 AM 68.0 °F - 59.9 °F 75% 30.01 in 10.0 mi Calm Calm - N/A   Clear
2:15 AM 67.8 °F - 59.9 °F 76% 30.00 in 10.0 mi Calm Calm - N/A   Clear
2:35 AM 66.2 °F - 59.9 °F 80% 30.00 in 10.0 mi Calm Calm - N/A   Clear
2:55 AM 66.0 °F - 59.9 °F 81% 30.00 in 10.0 mi Calm Calm - N/A   Scattered Clouds
3:15 AM 66.0 °F - 59.9 °F 81% 30.01 in 10.0 mi Calm Calm - N/A   Scattered Clouds
3:35 AM 64.8 °F - 59.9 °F 84% 30.01 in 10.0 mi Calm Calm - N/A   Scattered Clouds
3:55 AM 64.0 °F - 59.7 °F 86% 30.01 in 10.0 mi Calm Calm - N/A   Clear
4:15 AM 64.2 °F - 59.9 °F 86% 30.02 in 10.0 mi Calm Calm - N/A   Scattered Clouds
4:35 AM 64.8 °F - 59.9 °F 84% 30.02 in 10.0 mi Calm Calm - N/A   Mostly Cloudy
4:55 AM 64.8 °F - 59.9 °F 84% 30.02 in 10.0 mi Calm Calm - N/A   Scattered Clouds
5:15 AM 64.8 °F - 59.9 °F 84% 30.02 in 10.0 mi Calm Calm - N/A   Mostly Cloudy
5:35 AM 65.3 °F - 59.9 °F 83% 30.02 in 10.0 mi Calm Calm - N/A   Mostly Cloudy
5:55 AM 64.8 °F - 59.2 °F 82% 30.02 in 10.0 mi Calm Calm - N/A   Scattered Clouds
6:15 AM 63.9 °F - 59.0 °F 84% 30.02 in 10.0 mi Calm Calm - N/A   Clear
6:35 AM 63.5 °F - 59.0 °F 85% 30.02 in 10.0 mi Calm Calm - N/A   Clear
6:55 AM 63.0 °F - 59.0 °F 87% 30.03 in 10.0 mi Calm Calm - N/A   Clear
7:15 AM 64.2 °F - 59.4 °F 84% 30.03 in 10.0 mi Calm Calm - N/A   Clear
7:35 AM 65.8 °F - 59.5 °F 80% 30.03 in 10.0 mi Calm Calm - N/A   Clear
7:55 AM 67.5 °F - 59.5 °F 76% 30.03 in 10.0 mi Calm Calm - N/A   Clear
8:15 AM 69.1 °F - 59.7 °F 72% 30.03 in 10.0 mi Calm Calm - N/A   Clear
8:35 AM 71.2 °F - 59.9 °F 67% 30.04 in 10.0 mi Calm Calm - N/A   Clear
8:55 AM 73.2 °F - 60.1 °F 63% 30.04 in 10.0 mi Calm Calm - N/A   Clear
9:15 AM 75.4 °F - 60.1 °F 59% 30.04 in 10.0 mi Calm Calm - N/A   Clear
9:35 AM 76.8 °F - 59.2 °F 54% 30.04 in 10.0 mi Calm Calm - N/A   Clear
9:55 AM 78.1 °F - 58.8 °F 51% 30.04 in 10.0 mi Calm Calm - N/A   Clear
10:15 AM 79.3 °F - 57.9 °F 48% 30.05 in 10.0 mi Calm Calm - N/A   Clear
10:35 AM 80.6 °F 80.8 °F 57.7 °F 45% 30.05 in 10.0 mi Calm Calm - N/A   Clear
10:55 AM 81.3 °F 81.2 °F 56.8 °F 43% 30.05 in 10.0 mi Calm Calm - N/A   Clear
11:15 AM 81.5 °F 81.5 °F 57.4 °F 44% 30.05 in 10.0 mi Calm Calm - N/A   Clear
11:35 AM 83.7 °F 82.7 °F 55.6 °F 38% 30.04 in 10.0 mi Calm Calm - N/A   Clear
11:55 AM 82.9 °F 82.1 °F 55.9 °F 39% 30.04 in 10.0 mi Calm Calm - N/A   Clear
12:15 PM 84.4 °F 83.1 °F 54.7 °F 36% 30.04 in 10.0 mi Calm Calm - N/A   Clear
12:35 PM 85.3 °F 83.8 °F 54.7 °F 35% 30.04 in 10.0 mi Calm Calm - N/A   Clear
12:55 PM 87.3 °F 85.7 °F 55.8 °F 34% 30.03 in 10.0 mi NNW 4.6 mph - N/A   Clear
1:15 PM 86.9 °F 85.5 °F 55.9 °F 35% 30.02 in 10.0 mi NW 4.6 mph - N/A   Clear
1:35 PM 87.8 °F 86.3 °F 55.8 °F 34% 30.02 in 10.0 mi Calm Calm - N/A   Clear
1:55 PM 87.6 °F 85.9 °F 55.2 °F 33% 30.01 in 10.0 mi WSW 8.1 mph - N/A   Clear
2:15 PM 88.0 °F 86.3 °F 55.8 °F 33% 30.01 in 10.0 mi Calm Calm - N/A   Clear
2:35 PM 88.3 °F 86.3 °F 54.5 °F 31% 30.01 in 10.0 mi WNW 9.2 mph - N/A   Clear
2:55 PM 88.9 °F 86.5 °F 53.1 °F 29% 30.00 in 10.0 mi Calm Calm - N/A   Clear
3:15 PM 88.7 °F - 52.9 °F 29% 29.99 in 10.0 mi North 5.8 mph - N/A   Clear
3:35 PM 88.0 °F 85.9 °F 53.6 °F 31% 29.98 in 10.0 mi Calm Calm - N/A   Clear
3:55 PM 88.9 °F 86.9 °F 54.7 °F 31% 29.98 in 10.0 mi West 8.1 mph - N/A   Clear
4:15 PM 89.4 °F 87.5 °F 54.7 °F 31% 29.98 in 10.0 mi NW 3.5 mph - N/A   Clear
4:35 PM 88.7 °F 86.9 °F 55.6 °F 32% 29.97 in 10.0 mi Calm Calm - N/A   Clear
4:55 PM 88.2 °F 86.5 °F 55.4 °F 33% 29.99 in 10.0 mi Calm Calm - N/A   Clear
5:15 PM 88.3 °F 86.3 °F 54.5 °F 31% 29.98 in 10.0 mi Calm Calm - N/A   Clear
5:35 PM 88.3 °F 86.5 °F 55.0 °F 32% 29.99 in 10.0 mi Calm Calm - N/A   Clear
5:55 PM 86.4 °F 84.7 °F 55.2 °F 34% 29.98 in 10.0 mi Calm Calm - N/A   Clear
6:15 PM 84.6 °F 83.4 °F 55.9 °F 37% 29.99 in 10.0 mi Calm Calm - N/A   Clear
6:35 PM 85.3 °F 84.1 °F 56.3 °F 37% 29.98 in 10.0 mi Calm Calm - N/A   Clear
6:55 PM 84.0 °F 83.3 °F 57.0 °F 40% 29.99 in 10.0 mi Calm Calm - N/A   Clear
7:15 PM 81.9 °F 81.7 °F 57.2 °F 43% 29.99 in 10.0 mi Calm Calm - N/A   Clear
7:35 PM 81.3 °F 81.3 °F 57.4 °F 44% 29.99 in 10.0 mi Calm Calm - N/A   Clear
7:55 PM 79.5 °F - 58.5 °F 48% 30.00 in 10.0 mi Calm Calm - N/A   Clear
8:15 PM 77.9 °F - 59.0 °F 52% 30.01 in 10.0 mi Calm Calm - N/A   Clear
8:35 PM 77.2 °F - 62.2 °F 60% 30.02 in 10.0 mi Calm Calm - N/A   Clear
8:55 PM 76.5 °F - 62.8 °F 62% 30.02 in 10.0 mi Calm Calm - N/A   Clear
9:15 PM 75.7 °F - 63.5 °F 66% 30.02 in 10.0 mi Calm Calm - N/A   Clear
9:35 PM 75.0 °F - 63.5 °F 67% 30.03 in 10.0 mi Calm Calm - N/A   Clear
9:55 PM 74.1 °F - 63.5 °F 69% 30.04 in 10.0 mi Calm Calm - N/A   Scattered Clouds
10:15 PM 73.8 °F - 63.9 °F 71% 30.04 in 10.0 mi Calm Calm - N/A   Mostly Cloudy
10:35 PM 73.8 °F - 64.0 °F 72% 30.05 in 10.0 mi Calm Calm - N/A   Overcast
10:55 PM 73.4 °F - 64.2 °F 73% 30.05 in 10.0 mi Calm Calm - N/A   Mostly Cloudy
11:15 PM 72.7 °F - 64.2 °F 75% 30.05 in 10.0 mi Calm Calm - N/A   Scattered Clouds
11:35 PM 72.1 °F - 64.0 °F 76% 30.05 in 10.0 mi Calm Calm - N/A   Scattered Clouds
11:55 PM 71.6 °F - 64.4 °F 78% 30.05 in 10.0 mi Calm Calm - N/A   Scattered Clouds